Regional Weather Roundup
Issued by NWS Cleveland, OH

Home | Current Version | Previous Version | Text Only | Print | Product List | Glossary Off
Versions: 1 2 3 4 5 6 7 8 9 10 11 12 13 14 15 16 17 18 19 20 21 22 23 24 25 26 27 28 29 30 31 32 33 34 35 36 37 38 39 40 41 42 43 44 45 46 47 48 49 50

000
ASUS41 KCLE 090300
RWRCLE
OHIO REGIONAL WEATHER ROUNDUP
NATIONAL WEATHER SERVICE WILMINGTON, OH
1000 PM EST MON FEB 08 2016

NOTE: "FAIR" INDICATES FEW OR NO CLOUDS BELOW 12,000 FEET WITH NO
SIGNIFICANT WEATHER AND/OR OBSTRUCTIONS TO VISIBILITY.

OHZ001>008-015>018-024>027-034-035-043-044-090400-
   NORTHWEST OHIO

CITY           SKY/WX    TMP DP  RH WIND       PRES   REMARKS
DEFIANCE       CLOUDY    33  26  75 W10G20    29.65S WCI  25
FINDLAY        FAIR      32  27  81 W9        29.62S WCI  24
TOLEDO EXPRESS MOCLDY    31  26  82 W9        29.62R WCI  23
TOLEDO EXEC    CLOUDY    33  27  78 W12       29.62S WCI  24
LIMA           CLOUDY    31  28  89 W15       29.64S WCI  20
$$

OHZ009>014-019>023-028>033-038-089-090400-
   NORTHEAST OHIO

CITY           SKY/WX    TMP DP  RH WIND       PRES   REMARKS
CLE-HOPKINS    LGT SNOW  33  30  88 SW6       29.62S FOG     WCI  28
CLE-LAKEFRONT  LGT SNOW  34  32  92 SW8       29.59F FOG     WCI  27
CUY CO. ARPT   LGT SNOW  34  32  93 W7        29.59F FOG     WCI  28
LORAIN-ELYRIA  LGT SNOW  33  30  88 W7        29.61S FOG     WCI  27
ASHTABULA      CLOUDY    33  31  92 W8        29.58S WCI  26
AKRON-CANTON   FLURRIES  31  29  92 SW6       29.59S WCI  25
WOOSTER        NOT AVBL
MANSFIELD      FAIR      31  30  96 W5        29.59S WCI  26
YOUNGSTOWN     FLURRIES  32  30  92 SW7       29.58S WCI  26
$$

OHZ042-051>053-060>062-070>072-077>081-090400-
  SOUTHWEST OHIO

CITY           SKY/WX    TMP DP  RH WIND       PRES   REMARKS
CINC-COVINGTON LGT SNOW  26  22  84 W17       29.74R FOG     WCI  13
CINC-LUNKEN    LGT SNOW  27  24  89 W14       29.77R FOG     WCI  16
HAMILTON       LGT SNOW  26  23  88 W13G21    29.75R FOG     WCI  15
DAYTON         LGT SNOW  27  25  93 NW15      29.69R FOG     WCI  15
WRIGHT-PAT AFB NOT AVBL
DAYTON GENERAL LGT SNOW  27  24  89 W10       29.69R VSB 3/4 WCI  17
WILMINGTON     LGT SNOW  28  26  92 W13       29.67R VSB 3/4 WCI  17
$$

OHZ036-037-039>041-045>050-054>059-063>069-073>076-082>088-090400-
  CENTRAL AND SOUTHEAST OHIO

CITY           SKY/WX    TMP DP  RH WIND       PRES   REMARKS
COLUMBUS       CLOUDY    32  32 100 CALM      29.63S
OSU AIRPORT    CLOUDY    33  31  92 W7        29.62S WCI  27
BOLTON FIELD   NOT AVBL
RICKENBACK AFB NOT AVBL
NEWARK         CLOUDY    34  31  88 S3        29.62S FOG
MARION         FAIR      32  27  81 W7        29.63R WCI  26
LANCASTER      FLURRIES  34  31  88 W7        29.63F WCI  28
ZANESVILLE     CLOUDY    35  32  88 W3        29.62S FOG
NEW PHILLY     CLOUDY    31  30  96 CALM      29.62S FOG
$$



USA.gov is the U.S. government's official web portal to all federal, state and local government web resources and services.